This is the latest recevied weather packets stored in our database for station/object K4GSL. If no packets are shown the sender has not sent any weather packets the latest 10 day(s).
| Time | Temp. | Humidity | Pressure | Rain* | Wind** | Luminosity | Snow |
|---|---|---|---|---|---|---|---|
| 1777339946 | 15° C | 62% | 1022.9 hPa | 0 mm | - | 123 W/m² | - |
| 1777339643 | 14.44° C | 63% | 1022.9 hPa | 0 mm | - | 94 W/m² | - |
| 1777339341 | 14.44° C | 62% | 1023 hPa | 0 mm | - | 91 W/m² | - |
| 1777339039 | 14.44° C | 62% | 1022.9 hPa | 0 mm | - | 93 W/m² | - |
| 1777338735 | 15° C | 61% | 1022.8 hPa | 0 mm | - | 110 W/m² | - |
| 1777338433 | 15.56° C | 60% | 1023.2 hPa | 0 mm | - | 123 W/m² | - |
| 1777338130 | 16.11° C | 58% | 1023.1 hPa | 0 mm | - | 237 W/m² | - |
| 1777337826 | 16.11° C | 59% | 1023 hPa | 0 mm | - | 229 W/m² | - |
| 1777337523 | 16.11° C | 59% | 1023 hPa | 0 mm | - | 239 W/m² | - |
| 1777337220 | 16.11° C | 58% | 1022.8 hPa | 0 mm | - | 276 W/m² | - |
| 1777336918 | 15.56° C | 59% | 1022.8 hPa | 0 mm | - | 311 W/m² | - |
| 1777336616 | 16.11° C | 58% | 1022.8 hPa | 0 mm | - | 245 W/m² | - |
| 1777336315 | 16.11° C | 58% | 1022.9 hPa | 0 mm | - | 226 W/m² | - |
| 1777336011 | 15.56° C | 60% | 1022.8 hPa | 0 mm | - | 312 W/m² | - |
| 1777335708 | 15.56° C | 58% | 1022.8 hPa | 0 mm | - | 249 W/m² | - |
| 1777335404 | 15.56° C | 58% | 1022.6 hPa | 0 mm | - | 272 W/m² | - |
| 1777335102 | 15° C | 60% | 1023 hPa | 0 mm | - | 255 W/m² | - |
| 1777334800 | 15° C | 59% | 1022.7 hPa | 0 mm | - | 211 W/m² | - |
| 1777334498 | 15.56° C | 60% | 1022.2 hPa | 0 mm | - | 265 W/m² | - |
| 1777334194 | 15.56° C | 58% | 1022.4 hPa | 0 mm | - | 251 W/m² | - |
| 1777333893 | 15.56° C | 58% | 1022.6 hPa | 0 mm | - | 282 W/m² | - |
| 1777333590 | 16.11° C | 57% | 1022.4 hPa | 0 mm | - | 338 W/m² | - |
| 1777333286 | 16.11° C | 57% | 1022.5 hPa | 0 mm | - | 545 W/m² | - |
| 1777332985 | 16.67° C | 57% | 1022.6 hPa | 0 mm | - | 538 W/m² | - |
| 1777332683 | 16.67° C | 57% | 1022.6 hPa | 0 mm | - | 496 W/m² | - |
* Rain latest hour (hover to see other rain measurements)
** Current wind speed in m/s (hover to see current wind gust speed)